Time,TemperatureF,DewpointF,PressureIn,WindDirection,WindDirectionDegrees,WindSpeedMPH,WindSpeedGustMPH,Humidity,HourlyPrecipIn,Conditions,Clouds,dailyrainin,SoftwareType,DateUTC
2013-01-17 00:02:00,43.0,-99.9,-100.00,South,180,3.0,3.0,-999,-99.99,,,-99.99,,2013-01-17 08:02:00,
2013-01-17 00:12:00,44.0,-99.9,-100.00,South,180,4.0,4.0,-999,-99.99,,,-99.99,,2013-01-17 08:12:00,
2013-01-17 00:22:00,44.0,-99.9,-100.00,South,180,4.0,4.0,-999,-99.99,,,-99.99,,2013-01-17 08:22:00,
2013-01-17 00:33:00,43.0,-99.9,-100.00,South,180,5.0,5.0,-999,-99.99,,,-99.99,,2013-01-17 08:33:00,
2013-01-17 00:44:00,44.0,-99.9,-100.00,SW,225,3.0,3.0,-999,-99.99,,,0.00,,2013-01-17 08:44:00,
2013-01-17 00:53:00,44.0,-99.9,-100.00,SW,225,3.0,3.0,-999,-99.99,,,0.00,,2013-01-17 08:53:00,
2013-01-17 01:03:00,43.0,-99.9,-100.00,SW,225,3.0,3.0,-999,-99.99,,,-99.99,,2013-01-17 09:03:00,
2013-01-17 01:12:00,42.0,-99.9,-100.00,SW,225,4.0,4.0,-999,-99.99,,,0.00,,2013-01-17 09:12:00,
2013-01-17 01:22:00,42.0,-99.9,-100.00,SW,225,4.0,4.0,-999,-99.99,,,0.00,,2013-01-17 09:22:00,
2013-01-17 01:33:00,43.0,-99.9,-100.00,SW,225,3.0,3.0,-999,-99.99,,,0.00,,2013-01-17 09:33:00,
2013-01-17 01:43:00,44.0,-99.9,-100.00,SW,225,4.0,4.0,-999,-99.99,,,0.00,,2013-01-17 09:43:00,
2013-01-17 01:53:00,44.0,-99.9,-100.00,SW,225,4.0,4.0,-999,-99.99,,,0.00,,2013-01-17 09:53:00,
2013-01-17 02:02:00,44.0,-99.9,-100.00,SW,225,3.0,3.0,-999,-99.99,,,0.00,,2013-01-17 10:02:00,
2013-01-17 02:12:00,43.0,-99.9,-100.00,SW,225,5.0,5.0,-999,-99.99,,,0.00,,2013-01-17 10:12:00,
2013-01-17 02:22:00,43.0,-99.9,-100.00,SW,225,5.0,5.0,-999,-99.99,,,0.00,,2013-01-17 10:22:00,
2013-01-17 02:33:00,43.0,-99.9,-100.00,SW,225,4.0,4.0,-999,-99.99,,,0.00,,2013-01-17 10:33:00,
2013-01-17 02:43:00,43.0,-99.9,-100.00,SW,225,3.0,3.0,-999,-99.99,,,0.00,,2013-01-17 10:43:00,
2013-01-17 02:53:00,43.0,-99.9,-100.00,SW,225,3.0,3.0,-999,-99.99,,,0.00,,2013-01-17 10:53:00,
2013-01-17 03:03:00,43.0,-99.9,-100.00,SW,225,3.0,3.0,-999,-99.99,,,0.00,,2013-01-17 11:03:00,
2013-01-17 03:12:00,43.0,-99.9,-100.00,SW,225,3.0,3.0,-999,-99.99,,,0.00,,2013-01-17 11:12:00,
2013-01-17 03:23:00,43.0,-99.9,-100.00,SW,225,3.0,3.0,-999,-99.99,,,0.00,,2013-01-17 11:23:00,
2013-01-17 03:33:00,42.0,-99.9,-100.00,SW,225,4.0,4.0,-999,-99.99,,,0.00,,2013-01-17 11:33:00,
2013-01-17 03:43:00,42.0,-99.9,-100.00,SW,225,5.0,5.0,-999,-99.99,,,0.00,,2013-01-17 11:43:00,
2013-01-17 03:53:00,42.0,-99.9,-100.00,SW,225,5.0,5.0,-999,-99.99,,,0.00,,2013-01-17 11:53:00,
2013-01-17 04:03:00,41.0,-99.9,-100.00,SW,225,5.0,5.0,-999,-99.99,,,0.00,,2013-01-17 12:03:00,
2013-01-17 04:12:00,42.0,-99.9,-100.00,South,180,4.0,4.0,-999,-99.99,,,0.00,,2013-01-17 12:12:00,
2013-01-17 04:23:00,42.0,-99.9,-100.00,South,180,4.0,4.0,-999,-99.99,,,0.00,,2013-01-17 12:23:00,
2013-01-17 04:33:00,42.0,-99.9,-100.00,SW,225,4.0,4.0,-999,-99.99,,,-99.99,,2013-01-17 12:33:00,
2013-01-17 04:43:00,42.0,-99.9,-100.00,South,180,4.0,4.0,-999,-99.99,,,0.00,,2013-01-17 12:43:00,
2013-01-17 04:53:00,42.0,-99.9,-100.00,South,180,4.0,4.0,-999,-99.99,,,0.00,,2013-01-17 12:53:00,
2013-01-17 05:03:00,42.0,-99.9,-100.00,SW,225,4.0,4.0,-999,-99.99,,,-99.99,,2013-01-17 13:03:00,
2013-01-17 05:13:00,42.0,-99.9,-100.00,SW,225,5.0,5.0,-999,-99.99,,,0.00,,2013-01-17 13:13:00,
2013-01-17 05:23:00,42.0,-99.9,-100.00,SW,225,5.0,5.0,-999,-99.99,,,0.00,,2013-01-17 13:23:00,
2013-01-17 05:33:00,42.0,-99.9,-100.00,SW,225,5.0,5.0,-999,-99.99,,,0.00,,2013-01-17 13:33:00,
2013-01-17 05:43:00,42.0,-99.9,-100.00,SW,225,5.0,5.0,-999,-99.99,,,0.00,,2013-01-17 13:43:00,
2013-01-17 05:53:00,42.0,-99.9,-100.00,SW,225,5.0,5.0,-999,-99.99,,,0.00,,2013-01-17 13:53:00,
2013-01-17 06:04:00,42.0,-99.9,-100.00,SW,225,5.0,5.0,-999,-99.99,,,0.00,,2013-01-17 14:04:00,
2013-01-17 06:13:00,42.0,-99.9,-100.00,SW,225,4.0,4.0,-999,-99.99,,,0.00,,2013-01-17 14:13:00,
2013-01-17 06:23:00,42.0,-99.9,-100.00,SW,225,4.0,4.0,-999,-99.99,,,0.00,,2013-01-17 14:23:00,
2013-01-17 06:33:00,42.0,-99.9,-100.00,SW,225,5.0,5.0,-999,-99.99,,,-99.99,,2013-01-17 14:33:00,
2013-01-17 06:43:00,42.0,-99.9,-100.00,SW,225,4.0,4.0,-999,-99.99,,,0.00,,2013-01-17 14:43:00,
2013-01-17 06:53:00,42.0,-99.9,-100.00,SW,225,4.0,4.0,-999,-99.99,,,0.00,,2013-01-17 14:53:00,
2013-01-17 07:03:00,42.0,-99.9,-100.00,SW,225,6.0,6.0,-999,-99.99,,,-99.99,,2013-01-17 15:03:00,
2013-01-17 07:13:00,41.0,-99.9,-100.00,SW,225,5.0,5.0,-999,-99.99,,,0.00,,2013-01-17 15:13:00,
2013-01-17 07:23:00,41.0,-99.9,-100.00,SW,225,5.0,5.0,-999,-99.99,,,0.00,,2013-01-17 15:23:00,
2013-01-17 07:33:00,40.0,-99.9,-100.00,SW,225,5.0,5.0,-999,-99.99,,,0.00,,2013-01-17 15:33:00,
2013-01-17 07:44:00,40.0,-99.9,-100.00,SW,225,5.0,5.0,-999,-99.99,,,0.00,,2013-01-17 15:44:00,
2013-01-17 07:53:00,40.0,-99.9,-100.00,SW,225,4.0,4.0,-999,-99.99,,,-99.99,,2013-01-17 15:53:00,
2013-01-17 08:03:00,40.0,-99.9,-100.00,SW,225,4.0,4.0,-999,-99.99,,,-99.99,,2013-01-17 16:03:00,
2013-01-17 08:13:00,40.0,-99.9,-100.00,SW,225,6.0,6.0,-999,-99.99,,,0.00,,2013-01-17 16:13:00,
2013-01-17 08:23:00,40.0,-99.9,-100.00,SW,225,6.0,6.0,-999,-99.99,,,0.00,,2013-01-17 16:23:00,
2013-01-17 08:34:00,40.0,-99.9,-100.00,SW,225,5.0,5.0,-999,-99.99,,,0.00,,2013-01-17 16:34:00,
2013-01-17 08:44:00,41.0,-99.9,-100.00,SW,225,5.0,5.0,-999,-99.99,,,0.00,,2013-01-17 16:44:00,
2013-01-17 08:53:00,41.0,-99.9,-100.00,SW,225,5.0,5.0,-999,-99.99,,,0.00,,2013-01-17 16:53:00,
2013-01-17 09:04:00,42.0,-99.9,-100.00,SW,225,6.0,6.0,-999,-99.99,,,-99.99,,2013-01-17 17:04:00,
2013-01-17 09:13:00,43.0,-99.9,-100.00,SW,225,6.0,6.0,-999,-99.99,,,0.00,,2013-01-17 17:13:00,
2013-01-17 09:33:00,44.0,-99.9,-100.00,SW,225,5.0,5.0,-999,-99.99,,,-99.99,,2013-01-17 17:33:00,
2013-01-17 09:43:00,45.0,-99.9,-100.00,SW,225,4.0,4.0,-999,-99.99,,,0.00,,2013-01-17 17:43:00,
2013-01-17 09:54:00,45.0,-99.9,-100.00,SW,225,4.0,4.0,-999,-99.99,,,0.00,,2013-01-17 17:54:00,
2013-01-17 10:13:00,45.0,-99.9,-100.00,SW,225,7.0,7.0,-999,-99.99,,,0.00,,2013-01-17 18:13:00,
2013-01-17 10:23:00,45.0,-99.9,-100.00,SW,225,7.0,7.0,-999,-99.99,,,0.00,,2013-01-17 18:23:00,
2013-01-17 10:34:00,46.0,-99.9,-100.00,SW,225,10.0,10.0,-999,-99.99,,,0.00,,2013-01-17 18:34:00,
2013-01-17 10:44:00,47.0,-99.9,-100.00,SW,225,5.0,5.0,-999,-99.99,,,0.00,,2013-01-17 18:44:00,
2013-01-17 10:54:00,47.0,-99.9,-100.00,SW,225,5.0,5.0,-999,-99.99,,,0.00,,2013-01-17 18:54:00,
2013-01-17 11:04:00,47.0,-99.9,-100.00,SW,225,5.0,5.0,-999,-99.99,,,0.00,,2013-01-17 19:04:00,
2013-01-17 11:13:00,47.0,-99.9,-100.00,SW,225,8.0,8.0,-999,-99.99,,,0.00,,2013-01-17 19:13:00,
2013-01-17 11:23:00,47.0,-99.9,-100.00,SW,225,8.0,8.0,-999,-99.99,,,0.00,,2013-01-17 19:23:00,
2013-01-17 11:33:00,47.0,-99.9,-100.00,SW,225,7.0,7.0,-999,-99.99,,,0.00,,2013-01-17 19:33:00,
2013-01-17 11:43:00,47.0,-99.9,-100.00,SW,225,6.0,6.0,-999,-99.99,,,0.00,,2013-01-17 19:43:00,
2013-01-17 11:54:00,47.0,-99.9,-100.00,SW,225,6.0,6.0,-999,-99.99,,,0.00,,2013-01-17 19:54:00,
2013-01-17 12:03:00,47.0,-99.9,-100.00,SW,225,9.0,9.0,-999,-99.99,,,0.00,,2013-01-17 20:03:00,
2013-01-17 12:13:00,48.0,-99.9,-100.00,SW,225,5.0,5.0,-999,-99.99,,,0.00,,2013-01-17 20:13:00,
2013-01-17 12:23:00,48.0,-99.9,-100.00,SW,225,5.0,5.0,-999,-99.99,,,0.00,,2013-01-17 20:23:00,
2013-01-17 12:34:00,48.0,-99.9,-100.00,SW,225,5.0,5.0,-999,-99.99,,,0.00,,2013-01-17 20:34:00,
2013-01-17 12:44:00,49.0,-99.9,-100.00,SW,225,7.0,7.0,-999,-99.99,,,0.00,,2013-01-17 20:44:00,
2013-01-17 12:54:00,49.0,-99.9,-100.00,SW,225,7.0,7.0,-999,-99.99,,,0.00,,2013-01-17 20:54:00,
2013-01-17 13:03:00,52.0,-99.9,-100.00,SW,225,5.0,5.0,-999,-99.99,,,-99.99,,2013-01-17 21:03:00,
2013-01-17 13:13:00,54.0,-99.9,-100.00,South,180,4.0,4.0,-999,-99.99,,,0.00,,2013-01-17 21:13:00,
2013-01-17 13:24:00,54.0,-99.9,-100.00,South,180,4.0,4.0,-999,-99.99,,,0.00,,2013-01-17 21:24:00,
2013-01-17 13:34:00,54.0,-99.9,-100.00,South,180,6.0,6.0,-999,-99.99,,,0.00,,2013-01-17 21:34:00,
2013-01-17 13:43:00,55.0,-99.9,-100.00,SW,225,5.0,5.0,-999,-99.99,,,0.00,,2013-01-17 21:43:00,
2013-01-17 14:04:00,55.0,-99.9,-100.00,SW,225,5.0,5.0,-999,-99.99,,,-99.99,,2013-01-17 22:04:00,
2013-01-17 14:12:00,55.0,-99.9,-100.00,SW,225,4.0,4.0,-999,-99.99,,,0.00,,2013-01-17 22:12:00,
2013-01-17 14:23:00,55.0,-99.9,-100.00,SW,225,4.0,4.0,-999,-99.99,,,0.00,,2013-01-17 22:23:00,
2013-01-17 14:33:00,53.0,-99.9,-100.00,SW,225,8.0,8.0,-999,-99.99,,,0.00,,2013-01-17 22:33:00,
2013-01-17 14:43:00,56.0,-99.9,-100.00,SW,225,3.0,3.0,-999,-99.99,,,0.00,,2013-01-17 22:43:00,
2013-01-17 14:53:00,56.0,-99.9,-100.00,SW,225,3.0,3.0,-999,-99.99,,,0.00,,2013-01-17 22:53:00,
2013-01-17 15:12:00,57.0,-99.9,-100.00,SW,225,3.0,3.0,-999,-99.99,,,0.00,,2013-01-17 23:12:00,
2013-01-17 15:23:00,57.0,-99.9,-100.00,SW,225,3.0,3.0,-999,-99.99,,,0.00,,2013-01-17 23:23:00,
2013-01-17 15:33:00,57.0,-99.9,-100.00,SW,225,3.0,3.0,-999,-99.99,,,0.00,,2013-01-17 23:33:00,
2013-01-17 15:43:00,57.0,-99.9,-100.00,South,180,3.0,3.0,-999,-99.99,,,0.00,,2013-01-17 23:43:00,
2013-01-17 15:53:00,57.0,-99.9,-100.00,South,180,3.0,3.0,-999,-99.99,,,0.00,,2013-01-17 23:53:00,
2013-01-17 16:03:00,58.0,-99.9,-100.00,South,180,2.0,2.0,-999,-99.99,,,0.00,,2013-01-18 00:03:00,
2013-01-17 16:13:00,58.0,-99.9,-100.00,South,180,3.0,3.0,-999,-99.99,,,0.00,,2013-01-18 00:13:00,
2013-01-17 16:23:00,58.0,-99.9,-100.00,South,180,3.0,3.0,-999,-99.99,,,0.00,,2013-01-18 00:23:00,
2013-01-17 16:33:00,58.0,-99.9,-100.00,SW,225,3.0,3.0,-999,-99.99,,,0.00,,2013-01-18 00:33:00,
2013-01-17 16:43:00,55.0,-99.9,-100.00,SW,225,3.0,3.0,-999,-99.99,,,0.00,,2013-01-18 00:43:00,
2013-01-17 16:53:00,55.0,-99.9,-100.00,SW,225,3.0,3.0,-999,-99.99,,,0.00,,2013-01-18 00:53:00,
2013-01-17 17:03:00,52.0,-99.9,-100.00,NE,45,1.0,1.0,-999,-99.99,,,0.00,,2013-01-18 01:03:00,
2013-01-17 17:13:00,51.0,-99.9,-100.00,North,-999,0.0,0.0,-999,-99.99,,,0.00,,2013-01-18 01:13:00,
2013-01-17 17:23:00,51.0,-99.9,-100.00,North,-999,0.0,0.0,-999,-99.99,,,0.00,,2013-01-18 01:23:00,
2013-01-17 17:33:00,50.0,-99.9,-100.00,North,-999,0.0,0.0,-999,-99.99,,,0.00,,2013-01-18 01:33:00,
2013-01-17 17:43:00,47.0,-99.9,-100.00,North,-999,0.0,0.0,-999,-99.99,,,0.00,,2013-01-18 01:43:00,
2013-01-17 17:53:00,47.0,-99.9,-100.00,North,-999,0.0,0.0,-999,-99.99,,,0.00,,2013-01-18 01:53:00,
2013-01-17 18:03:00,46.0,-99.9,-100.00,North,-999,0.0,0.0,-999,-99.99,,,0.00,,2013-01-18 02:03:00,
2013-01-17 18:12:00,44.0,-99.9,-100.00,North,-999,0.0,0.0,-999,-99.99,,,0.00,,2013-01-18 02:12:00,
2013-01-17 18:23:00,44.0,-99.9,-100.00,North,-999,0.0,0.0,-999,-99.99,,,0.00,,2013-01-18 02:23:00,
2013-01-17 18:33:00,43.0,-99.9,-100.00,North,-999,0.0,0.0,-999,-99.99,,,0.00,,2013-01-18 02:33:00,
2013-01-17 18:43:00,42.0,-99.9,-100.00,North,-999,0.0,0.0,-999,-99.99,,,0.00,,2013-01-18 02:43:00,
2013-01-17 18:53:00,42.0,-99.9,-100.00,North,-999,0.0,0.0,-999,-99.99,,,0.00,,2013-01-18 02:53:00,
2013-01-17 19:03:00,42.0,-99.9,-100.00,North,-999,0.0,0.0,-999,-99.99,,,0.00,,2013-01-18 03:03:00,
2013-01-17 19:13:00,42.0,-99.9,-100.00,North,-999,0.0,0.0,-999,-99.99,,,0.00,,2013-01-18 03:13:00,
2013-01-17 19:23:00,42.0,-99.9,-100.00,North,-999,0.0,0.0,-999,-99.99,,,0.00,,2013-01-18 03:23:00,
2013-01-17 19:33:00,42.0,-99.9,-100.00,North,-999,0.0,0.0,-999,-99.99,,,-99.99,,2013-01-18 03:33:00,
2013-01-17 19:43:00,42.0,-99.9,-100.00,North,-999,0.0,0.0,-999,-99.99,,,0.00,,2013-01-18 03:43:00,
2013-01-17 19:53:00,42.0,-99.9,-100.00,North,-999,0.0,0.0,-999,-99.99,,,0.00,,2013-01-18 03:53:00,
2013-01-17 20:03:00,42.0,-99.9,-100.00,North,-999,0.0,0.0,-999,-99.99,,,0.00,,2013-01-18 04:03:00,
2013-01-17 20:12:00,42.0,-99.9,-100.00,North,-999,0.0,0.0,-999,-99.99,,,0.00,,2013-01-18 04:12:00,
2013-01-17 20:22:00,42.0,-99.9,-100.00,North,-999,0.0,0.0,-999,-99.99,,,0.00,,2013-01-18 04:22:00,
2013-01-17 20:33:00,42.0,-99.9,-100.00,North,-999,0.0,0.0,-999,-99.99,,,0.00,,2013-01-18 04:33:00,
2013-01-17 20:43:00,42.0,-99.9,-100.00,South,180,1.0,1.0,-999,-99.99,,,0.00,,2013-01-18 04:43:00,
2013-01-17 20:53:00,41.0,-99.9,-100.00,SW,225,2.0,2.0,-999,-99.99,,,0.00,,2013-01-18 04:53:00,
2013-01-17 21:04:00,41.0,-99.9,-100.00,SW,225,2.0,2.0,-999,-99.99,,,0.00,,2013-01-18 05:04:00,
2013-01-17 21:12:00,40.0,-99.9,-100.00,South,180,3.0,3.0,-999,-99.99,,,0.00,,2013-01-18 05:12:00,
2013-01-17 21:34:00,41.0,-99.9,-100.00,South,180,3.0,3.0,-999,-99.99,,,0.00,,2013-01-18 05:34:00,
2013-01-17 21:43:00,40.0,-99.9,-100.00,South,180,3.0,3.0,-999,-99.99,,,0.00,,2013-01-18 05:43:00,
2013-01-17 21:53:00,40.0,-99.9,-100.00,South,180,3.0,3.0,-999,-99.99,,,0.00,,2013-01-18 05:53:00,
2013-01-17 22:03:00,41.0,-99.9,-100.00,SW,225,3.0,3.0,-999,-99.99,,,0.00,,2013-01-18 06:03:00,
2013-01-17 22:12:00,42.0,-99.9,-100.00,SW,225,4.0,4.0,-999,-99.99,,,0.00,,2013-01-18 06:12:00,
2013-01-17 22:23:00,42.0,-99.9,-100.00,SW,225,4.0,4.0,-999,-99.99,,,0.00,,2013-01-18 06:23:00,
2013-01-17 22:33:00,42.0,-99.9,-100.00,South,180,3.0,3.0,-999,-99.99,,,0.00,,2013-01-18 06:33:00,
2013-01-17 22:43:00,41.0,-99.9,-100.00,SW,225,4.0,4.0,-999,-99.99,,,0.00,,2013-01-18 06:43:00,
2013-01-17 22:53:00,41.0,-99.9,-100.00,SW,225,4.0,4.0,-999,-99.99,,,0.00,,2013-01-18 06:53:00,
2013-01-17 23:02:00,41.0,-99.9,-100.00,SW,225,4.0,4.0,-999,-99.99,,,-99.99,,2013-01-18 07:02:00,
2013-01-17 23:12:00,41.0,-99.9,-100.00,South,180,5.0,5.0,-999,-99.99,,,0.00,,2013-01-18 07:12:00,
2013-01-17 23:22:00,41.0,-99.9,-100.00,South,180,5.0,5.0,-999,-99.99,,,0.00,,2013-01-18 07:22:00,
2013-01-17 23:33:00,41.0,-99.9,-100.00,South,180,3.0,3.0,-999,-99.99,,,0.00,,2013-01-18 07:33:00,
2013-01-17 23:43:00,41.0,-99.9,-100.00,SW,225,3.0,3.0,-999,-99.99,,,0.00,,2013-01-18 07:43:00,
2013-01-17 23:53:00,41.0,-99.9,-100.00,SW,225,3.0,3.0,-999,-99.99,,,0.00,,2013-01-18 07:53:00,